This is the latest recevied weather packets stored in our database for station/object S56VIL-11. If no packets are shown the sender has not sent any weather packets the latest 10 day(s).
| Time | Temp. | Humidity | Pressure | Rain* | Wind** | Luminosity | Snow |
|---|---|---|---|---|---|---|---|
| 1788231287 | 18.89° C | 63% | 1032 hPa | - | - | - | - |
| 1788230387 | 18.89° C | 64% | 1032 hPa | - | - | - | - |
| 1788229487 | 18.89° C | 63% | 1031.8 hPa | - | - | - | - |
| 1788228587 | 18.89° C | 64% | 1031.9 hPa | - | - | - | - |
| 1788227687 | 18.89° C | 63% | 1031.9 hPa | - | - | - | - |
| 1788226787 | 19.44° C | 63% | 1031.9 hPa | - | - | - | - |
| 1788225887 | 19.44° C | 63% | 1031.6 hPa | - | - | - | - |
| 1788224987 | 19.44° C | 63% | 1031.9 hPa | - | - | - | - |
| 1788224087 | 19.44° C | 63% | 1031.9 hPa | - | - | - | - |
| 1788223187 | 20° C | 63% | 1031.7 hPa | - | - | - | - |
| 1788222287 | 20° C | 63% | 1031.7 hPa | - | - | - | - |
| 1788221386 | 19.44° C | 63% | 1031.8 hPa | - | - | - | - |
| 1788220486 | 18.89° C | 64% | 1031.7 hPa | - | - | - | - |
| 1788219586 | 20° C | 63% | 1031.7 hPa | - | - | - | - |
| 1788218686 | 20° C | 63% | 1031.4 hPa | - | - | - | - |
| 1788217786 | 20° C | 64% | 1031 hPa | - | - | - | - |
| 1788216886 | 20° C | 64% | 1031 hPa | - | - | - | - |
| 1788215986 | 20.56° C | 64% | 1030.7 hPa | - | - | - | - |
| 1788215086 | 20.56° C | 65% | 1030.8 hPa | - | - | - | - |
| 1788214186 | 21.11° C | 64% | 1030.5 hPa | - | - | - | - |
| 1788213286 | 20.56° C | 65% | 1030.8 hPa | - | - | - | - |
| 1788212386 | 20.56° C | 66% | 1030.8 hPa | - | - | - | - |
| 1788211486 | 20° C | 66% | 1031 hPa | - | - | - | - |
| 1788210586 | 20.56° C | 65% | 1030.2 hPa | - | - | - | - |
| 1788209686 | 21.11° C | 65% | 1030.1 hPa | - | - | - | - |
* Rain since midnight (hover to see other rain measurements)
** Current wind speed in m/s (hover to see current wind gust speed)